Homer, AK

6:54 AM AKST on November 12, 2019 (GMT -0900)
Homer

Weather History for PAHO - October, 2019

Change the Weather History Date:

Wednesday, October 23, 2019

  Actual Average Record
Temperature  
Mean Temperature 44 °F -  
Max Temperature 46 °F 41 °F 55 °F (1942)
Min Temperature 43 °F 27 °F 8 °F (1970)
Degree Days  
Heating Degree Days 20    
Moisture  
Dew Point 39 °F    
Average Humidity 78    
Maximum Humidity 89    
Minimum Humidity 71    
Precipitation  
Precipitation 0.72 in - - ()
Sea Level Pressure  
Sea Level Pressure 29.10 in    
Wind  
Wind Speed 16 mph (ESE)    
Max Wind Speed 33 mph    
Max Gust Speed 51 mph    
Visibility 8 miles    
Events Rain    
Averages and records for this station are not official NWS values.
T = Trace of Precipitation, MM = Missing Value Source: NWS Daily Summary

Daily Weather History Graph

Daily Weather History Graph

Search for Another Location

Airport or City:

Astronomy

Oct. 23, 2019 Rise Set
Actual Time 9:04 AM AKDT 6:35 PM AKDT
Civil Twilight 8:21 AM AKDT 7:17 PM AKDT
Nautical Twilight 7:33 AM AKDT 8:05 PM AKDT
Astronomical Twilight 6:45 AM AKDT 8:53 PM AKDT
Moon 1:47 AM AKDT (10/23) 6:04 PM AKDT (10/23)
Length of Visible Light 10h 56m
Length of Day
9h 30m
Waning Crescent, 25% of the Moon is Illuminated
Oct 23
Waning Crescent
Oct 27
New
Nov 4
First Quarter
Nov 12
Full
Nov 19
Last Quarter

Hourly Weather History & Observations

Time (AKDT) Temp. Windchill Dew Point Humidity Pressure Visibility Wind Dir Wind Speed Gust Speed Precip Events Conditions
12:53 AM 43.0 °F 35.1 °F 39.9 °F 89% 29.38 in 6.0 mi ENE 17.3 mph 25.3 mph 0.03 in Rain Rain
1:53 AM 44.1 °F 36.8 °F 41.0 °F 89% 29.30 in 5.0 mi ENE 16.1 mph 23.0 mph 0.08 in Rain Rain
2:53 AM 46.0 °F 37.4 °F 41.0 °F 83% 29.22 in 8.0 mi ENE 25.3 mph 35.7 mph 0.10 in Rain Light Rain
3:53 AM 45.0 °F 35.8 °F 39.9 °F 82% 29.13 in 4.0 mi East 26.5 mph 34.5 mph 0.05 in Rain Rain
4:53 AM 45.0 °F 35.2 °F 39.9 °F 82% 29.05 in 4.0 mi East 29.9 mph 50.6 mph 0.12 in Rain Rain
5:53 AM 46.0 °F 36.2 °F 39.0 °F 76% 29.02 in 7.0 mi ENE 33.4 mph 48.3 mph 0.12 in Rain Rain
6:53 AM 46.0 °F 39.6 °F 37.9 °F 73% 29.03 in 10.0 mi East 15.0 mph 33.4 mph 0.03 in Rain Rain
7:53 AM 45.0 °F 38.9 °F 39.0 °F 80% 29.03 in 8.0 mi ESE 12.7 mph 25.3 mph 0.01 in Rain Light Rain
9:53 AM 46.0 °F 41.9 °F 39.9 °F 79% 29.05 in 7.0 mi SE 8.1 mph 18.4 mph 0.03 in Rain Light Rain
10:53 AM 45.0 °F 41.2 °F 39.9 °F 82% 29.05 in 8.0 mi Variable 6.9 mph - 0.01 in Rain Light Rain
11:53 AM 46.9 °F - 39.9 °F 77% 29.05 in 10.0 mi ESE 10.4 mph 16.1 mph 0.02 in   Overcast
12:53 PM 46.0 °F 40.2 °F 39.9 °F 79% 29.05 in 8.0 mi ESE 12.7 mph 18.4 mph 0.01 in Rain Light Rain
1:53 PM 46.0 °F 41.0 °F 39.9 °F 79% 29.05 in 6.0 mi ESE 10.4 mph - 0.07 in Rain Light Rain
2:53 PM 46.0 °F 41.9 °F 39.9 °F 79% 29.05 in 10.0 mi ESE 8.1 mph - 0.03 in Rain Light Rain
3:53 PM 46.0 °F 43.1 °F 39.9 °F 79% 29.04 in 10.0 mi ESE 5.8 mph - 0.00 in   Overcast
4:53 PM 46.9 °F - 39.0 °F 74% 29.03 in 10.0 mi SE 9.2 mph - N/A   Scattered Clouds
5:53 PM 46.9 °F - 39.0 °F 74% 29.04 in 10.0 mi SSE 8.1 mph - N/A   Overcast
6:53 PM 46.9 °F - 37.9 °F 71% 29.06 in 10.0 mi ESE 4.6 mph - N/A   Overcast
8:53 PM 44.1 °F 42.5 °F 39.0 °F 82% 29.11 in 10.0 mi East 3.5 mph - N/A   Overcast
9:53 PM 46.9 °F - 37.9 °F 71% 29.13 in 10.0 mi SE 5.8 mph - N/A   Overcast
10:53 PM 46.9 °F - 37.9 °F 71% 29.16 in 10.0 mi SE 8.1 mph 19.6 mph 0.01 in   Overcast
11:53 PM 46.9 °F - 37.9 °F 71% 29.18 in 10.0 mi South 9.2 mph - N/A   Overcast